Terminal Aerodrome Forecast
Issued by NWS

Home | Current Version | Previous Version | Text Only | Print | Product List | Glossary On
Versions: 1 2 3 4 5 6 7 8 9 10 11 12 13 14 15 16 17 18 19 20 21 22 23 24 25 26 27 28 29 30 31 32 33 34 35 36 37 38 39 40 41 42 43 44 45 46 47 48 49 50
000
FTUS44 KHGX 021120
TAFIAH
TAF
KIAH 021120Z 0212/0318 17004KT P6SM SCT015
     FM021600 14010KT P6SM VCTS SCT035CB
      TEMPO 0218/0221 TSRA BKN040CB
     FM022300 15009KT P6SM SCT040
     FM030600 13004KT P6SM SCT015
     FM031600 13009KT P6SM SCT030=

USA.gov is the U.S. government's official web portal to all federal, state and local government web resources and services.